カタログに戻る

COSMOS 839 DEB

運用中UNKNOWN
NORAD 10466·DEBRIS·🇷🇺 Russia

打ち上げ Jul 8, 1976 から Plesetsk Cosmodrome

Loading…

次のパス (今後24時間)

TLE

最新Source: Space-Track

元期: Sep 14, 2026, 14:10 UTC

1 10466U 76067AK  26257.59076654  .00000118  00000-0  46311-3 0  9995
2 10466  65.8325 237.0571 0703331 124.1411 348.8492 12.50191879282951

AllMySatでCOSMOS 839 DEBをリアルタイム追跡

Download on the App Store